K5LRY-13 Weather Reports


Display with metric or nautical units.
time (UTC)temp
F
wind
direction
speed
MPH
gust
MPH
rain 1hr
in
rain 24hr
in
rain mn
in
humidity
%
barometer
mb
20260505163334 49 241 5.0 12.0 0.00 0.00 0.00 35 1018.3
20260505161825 48 195 3.0 8.0 0.00 0.00 0.00 38 1018.3
20260505160340 47 251 1.0 7.0 0.00 0.00 0.00 38 1018.8
20260505153354 45 181 3.0 6.0 0.00 0.00 0.00 46 1019.1
20260505151819 45 245 5.0 13.0 0.00 0.00 0.00 52 1019.3
20260505150312 44 198 3.0 9.0 0.00 0.00 0.00 58 1019.4
20260505140329 43 244 1.0 10.0 0.00 0.00 0.00 60 1019.3
20260505124813 42 252 2.0 11.0 0.00 0.00 0.00 60 1019.1
20260505123329 42 264 2.0 13.0 0.00 0.00 0.00 59 1019.1
20260505121822 42 270 6.0 9.0 0.00 0.00 0.00 57 1019.2
20260505120315 42 263 2.0 11.0 0.00 0.00 0.00 56 1019.1
20260505114838 42 257 5.0 13.0 0.00 0.00 0.00 55 1019.1
20260505113324 42 257 4.0 14.0 0.00 0.00 0.00 54 1019.0
20260505111817 43 278 4.0 14.0 0.00 0.00 0.00 52 1019.1
20260505110311 43 251 3.0 11.0 0.00 0.00 0.00 51 1019.3
20260505101813 43 250 1.0 8.0 0.00 0.00 0.00 49 1019.4
20260505100312 43 252 4.0 9.0 0.00 0.00 0.00 49 1019.3
20260505094826 43 257 3.0 7.0 0.00 0.00 0.00 49 1019.3
20260505093322 43 254 2.0 4.0 0.00 0.00 0.00 49 1019.4
20260505091814 43 254 2.0 8.0 0.00 0.00 0.00 49 1019.4
20260505090350 44 253 1.0 7.0 0.00 0.00 0.00 48 1019.8
20260505084831 44 255 1.0 8.0 0.00 0.00 0.00 47 1020.2
20260505083332 44 253 3.0 9.0 0.00 0.00 0.00 47 1020.5
20260505081826 45 243 1.0 8.0 0.00 0.00 0.00 46 1020.5
20260505080323 45 241 2.0 5.0 0.00 0.00 0.00 46 1020.7
20260505074841 45 271 1.0 9.0 0.00 0.00 0.00 45 1020.8
20260505073335 45 291 4.0 11.0 0.00 0.00 0.00 44 1021.1
20260505071822 46 249 6.0 13.0 0.00 0.00 0.00 42 1020.8
20260505070316 46 268 3.0 14.0 0.00 0.00 0.00 39 1020.7
20260505064812 46 285 3.0 10.0 0.00 0.00 0.00 37 1020.8
20260505063327 46 246 4.0 9.0 0.00 0.00 0.00 36 1020.6
20260505061819 47 272 4.0 12.0 0.00 0.00 0.00 35 1020.4
20260505060323 47 262 3.0 14.0 0.00 0.00 0.00 33 1020.6
20260505054846 48 278 5.0 10.0 0.00 0.00 0.00 31 1020.7
20260505053321 49 272 6.0 16.0 0.00 0.00 0.00 30 1020.7
20260505051820 49 225 4.0 9.0 0.00 0.00 0.00 29 1020.7
20260505050342 50 286 6.0 11.0 0.00 0.00 0.00 28 1020.6
20260505040317 51 260 4.0 13.0 0.00 0.00 0.00 31 1020.2
20260505034815 51 265 1.0 3.0 0.00 0.00 0.00 32 1020.3
20260505033330 51 265 0.0 3.0 0.00 0.00 0.00 31 1020.1
20260505031823 52 265 0.0 3.0 0.00 0.00 0.00 30 1020.2
20260505030318 52 264 2.0 8.0 0.00 0.00 0.00 30 1020.2
20260505024832 52 264 3.0 9.0 0.00 0.00 0.00 29 1019.9
20260505023328 53 252 3.0 11.0 0.00 0.00 0.00 28 1019.9
20260505021812 53 255 1.0 9.0 0.00 0.00 0.00 28 1020.0
20260505020327 53 266 3.0 12.0 0.00 0.00 0.00 27 1020.1
20260505014822 54 266 5.0 18.0 0.00 0.00 0.00 26 1020.0
20260505013317 54 284 7.0 14.0 0.00 0.00 0.00 25 1020.1
20260505011830 55 259 8.0 19.0 0.00 0.00 0.00 23 1020.3
20260505010344 55 260 7.0 18.0 0.00 0.00 0.00 21 1019.9
20260505004817 56 263 9.0 15.0 0.00 0.00 0.00 21 1020.0
20260505003311 57 236 7.0 15.0 0.00 0.00 0.00 20 1020.2
20260505001824 57 247 7.0 17.0 0.00 0.00 0.00 18 1020.3
20260505000318 57 285 8.0 16.0 0.00 0.00 0.00 18 1020.3
20260504234831 57 248 7.0 20.0 0.00 0.00 0.00 17 1020.3
20260504233328 58 264 7.0 19.0 0.00 0.00 0.00 16 1020.2
20260504231841 58 239 8.0 23.0 0.00 0.00 0.00 15 1020.3
20260504230336 61 212 7.0 23.0 0.00 0.00 0.00 14 1020.2
20260504224829 60 266 5.0 19.0 0.00 0.00 0.00 16 1020.3
20260504223324 60 229 4.0 15.0 0.00 0.00 0.00 14 1020.4
20260504221816 59 246 10.0 18.0 0.00 0.00 0.00 16 1020.5
20260504220331 59 199 7.0 16.0 0.00 0.00 0.00 20 1020.6
20260504214829 58 268 7.0 17.0 0.00 0.00 0.00 21 1021.0
20260504213324 57 256 6.0 15.0 0.00 0.00 0.00 20 1021.4
20260504211817 58 269 7.0 16.0 0.00 0.00 0.00 19 1021.6
20260504210330 57 203 6.0 16.0 0.00 0.00 0.00 21 1021.7
20260504204824 57 253 6.0 16.0 0.00 0.00 0.00 18 1021.8
20260504203339 56 257 7.0 18.0 0.00 0.00 0.00 18 1022.2
20260504201832 56 256 6.0 18.0 0.00 0.00 0.00 20 1022.4
20260504200318 56 249 5.0 15.0 0.00 0.00 0.00 21 1022.6
20260504194812 57 233 7.0 17.0 0.00 0.00 0.00 19 1022.7
20260504193334 57 231 7.0 14.0 0.00 0.00 0.00 19 1022.5
20260504191826 57 257 6.0 17.0 0.00 0.00 0.00 20 1022.7
20260504190318 57 267 6.0 13.0 0.00 0.00 0.00 19 1022.8
20260504184852 57 276 4.0 13.0 0.00 0.00 0.00 21 1022.7
20260504183347 56 278 7.0 17.0 0.00 0.00 0.00 21 1022.9
20260504181837 56 266 4.0 16.0 0.00 0.00 0.00 24 1022.7
20260504180336 57 211 6.0 15.0 0.00 0.00 0.00 26 1023.1
20260504174822 57 224 4.0 14.0 0.00 0.00 0.00 27 1023.1
20260504173316 56 271 4.0 15.0 0.00 0.00 0.00 28 1022.9
20260504171830 55 264 7.0 14.0 0.00 0.00 0.00 30 1023.1
20260504170345 55 231 4.0 11.0 0.00 0.00 0.00 34 1022.9